Location: Unspecified
(0.0000°N, 0.0000°E)
Time: 06:29:51
(UTC+00:00)

Vanguard 2 Rocket - Pass Details

Date: 22 November 2019
Orbit: 554 x 3326 km, 32.9° (Epoch: 11 December)

Event Time Altitude Azimuth Distance (km) Brightness Sun altitude
Rises 13:13:34 0° 241° (WSW) 7,144 11.9 60.6°
Reaches altitude 10° 13:21:24 10° 224° (SW) 6,279 11.8 59.2°
Maximum altitude 13:33:16 18° 187° (S) 5,472 11.5 56.9°
Drops below altitude 10° 13:43:59 10° 150° (SSE) 5,609 11.1 54.8°
Sets 13:50:16 0° 132° (SE) 6,145 11.1 53.5°
